GW2090 Weather Reports


time (UTC)temp
C
wind
direction
speed
KPH
gust
KPH
rain 1hr
cm
rain 24hr
cm
rain mn
cm
humidity
%
barometer
mb
20260831080104 15 0 0.0 3.2 0.00 0.03 0.00 77 1018.1
20260831074602 15 0 0.0 3.2 0.00 0.03 0.00 76 1018.1
20260831073106 15 0 0.0 4.8 0.00 0.03 0.00 76 1017.9
20260831071603 15 0 0.0 9.7 0.00 0.03 0.00 75 1017.9
20260831070101 15 0 1.6 4.8 0.00 0.03 0.00 75 1017.9
20260831064558 15 0 0.0 9.7 0.00 0.03 0.00 76 1017.8
20260831063103 15 238 0.0 4.8 0.00 0.03 0.00 77 1017.7
20260831061607 15 0 0.0 6.4 0.00 0.03 0.00 78 1017.5
20260831060109 15 0 0.0 6.4 0.00 0.03 0.00 80 1017.5
20260831054604 15 0 0.0 6.4 0.00 0.03 0.00 80 1017.4
20260831053101 15 0 0.0 8.0 0.00 0.03 0.00 81 1017.3
20260831051613 15 0 0.0 0.0 0.00 0.03 0.00 80 1017.1
20260831050106 16 0 0.0 0.0 0.00 0.03 0.00 79 1017.1
20260831044601 16 0 0.0 1.6 0.00 0.03 0.00 77 1017.1
20260831043059 16 0 0.0 1.6 0.00 0.03 0.00 76 1017.0
20260831041621 17 0 0.0 0.0 0.00 0.03 0.00 75 1017.0
20260831040104 17 0 0.0 3.2 0.00 0.03 0.00 74 1017.0
20260831034601 17 0 1.6 4.8 0.00 0.03 0.03 73 1017.0
20260831033056 17 0 0.0 3.2 0.00 0.03 0.03 73 1016.5
20260831031601 17 0 0.0 6.4 0.00 0.03 0.03 73 1016.5
20260831030114 18 0 0.0 4.8 0.00 0.03 0.03 73 1016.9
20260831024640 18 0 0.0 11.3 0.00 0.03 0.03 71 1017.0
20260831023100 19 0 3.2 12.9 0.00 0.03 0.03 67 1016.7
20260831021603 20 0 3.2 17.7 0.00 0.03 0.03 62 1016.7
20260831020059 20 221 4.8 17.7 0.00 0.03 0.03 62 1016.6
20260831014614 20 0 0.0 3.2 0.00 0.03 0.03 69 1016.0
20260831013113 20 0 0.0 3.2 0.00 0.03 0.03 68 1015.6
20260831011605 20 0 0.0 3.2 0.00 0.03 0.03 67 1015.5
20260831010105 21 0 0.0 0.0 0.00 0.03 0.03 67 1015.3
20260831004602 21 0 0.0 1.6 0.00 0.03 0.03 65 1015.2
20260831003100 21 0 0.0 3.2 0.00 0.03 0.03 64 1015.1
20260831001607 21 0 0.0 4.8 0.00 0.03 0.03 64 1015.1
20260831000105 21 250 0.0 1.6 0.00 0.03 0.03 63 1014.9
20260830234608 22 250 0.0 3.2 0.00 0.03 0.03 62 1014.8
20260830233106 22 250 0.0 6.4 0.00 0.03 0.03 61 1014.8
20260830231605 22 250 1.6 8.0 0.00 0.03 0.03 60 1014.8
20260830224601 22 235 3.2 16.1 0.00 0.03 0.03 59 1014.6
20260830223105 22 239 4.8 14.5 0.00 0.03 0.03 59 1014.8
20260830221603 22 275 1.6 16.1 0.00 0.03 0.03 59 1014.5
20260830220103 22 240 3.2 12.9 0.00 0.03 0.03 59 1014.9
20260830214558 22 245 6.4 16.1 0.00 0.03 0.03 61 1014.8
20260830213106 23 261 3.2 14.5 0.00 0.03 0.03 61 1014.8
20260830211602 22 0 3.2 17.7 0.00 0.03 0.03 63 1014.9
20260830210101 22 0 3.2 14.5 0.00 0.03 0.03 63 1014.9
20260830204603 22 244 4.8 14.5 0.00 0.03 0.03 68 1015.0
20260830203122 21 0 3.2 11.3 0.00 0.03 0.03 71 1015.0
20260830201615 21 0 0.0 11.3 0.00 0.03 0.03 72 1015.2
20260830200057 21 215 1.6 14.5 0.00 0.03 0.03 73 1015.3
20260830194608 21 219 3.2 17.7 0.00 0.03 0.03 74 1015.5
20260830193106 21 260 3.2 11.3 0.00 0.03 0.03 75 1015.6
20260830191603 20 0 4.8 12.9 0.00 0.03 0.03 77 1015.7
20260830184559 20 0 1.6 12.9 0.03 0.03 0.03 76 1016.5
20260830183110 21 225 1.6 4.8 0.03 0.03 0.03 76 1016.3
20260830181625 21 0 0.0 11.3 0.03 0.03 0.03 73 1016.7
20260830180109 22 0 1.6 11.3 0.00 0.00 0.00 68 1016.8
20260830174611 22 297 4.8 14.5 0.00 0.00 0.00 63 1016.8
20260830173111 23 251 6.4 22.5 0.00 0.00 0.00 60 1017.0
20260830171621 23 241 8.0 22.5 0.00 0.00 0.00 57 1017.2
20260830164621 24 292 3.2 14.5 0.00 0.00 0.00 54 1016.9
20260830163112 25 319 3.2 20.9 0.00 0.00 0.00 55 1016.9
20260830161604 25 321 4.8 17.7 0.00 0.00 0.00 55 1017.0
20260830160105 25 0 6.4 20.9 0.00 0.00 0.00 56 1017.2
20260830154601 24 208 3.2 22.5 0.00 0.00 0.00 56 1017.1
20260830153108 24 360 4.8 16.1 0.00 0.00 0.00 57 1017.4
20260830151605 23 238 4.8 17.7 0.00 0.00 0.00 60 1017.5
20260830150101 23 258 6.4 17.7 0.00 0.00 0.00 59 1017.6
20260830144604 22 240 1.6 16.1 0.00 0.00 0.00 61 1017.9
20260830143115 21 207 3.2 22.5 0.00 0.00 0.00 62 1017.9
20260830141605 21 227 4.8 14.5 0.00 0.00 0.00 64 1018.0
20260830140107 20 209 3.2 16.1 0.00 0.00 0.00 66 1018.0
20260830134605 19 245 1.6 11.3 0.00 0.00 0.00 70 1018.2
20260830133139 18 214 1.6 8.0 0.00 0.00 0.00 71 1018.4
20260830131614 17 270 0.0 4.8 0.00 0.00 0.00 72 1018.3
20260830130104 17 240 1.6 4.8 0.00 0.00 0.00 74 1018.4
20260830124618 17 233 0.0 11.3 0.00 0.00 0.00 74 1018.5
20260830123100 16 0 3.2 8.0 0.00 0.00 0.00 75 1018.6
20260830121603 16 0 1.6 6.4 0.00 0.00 0.00 76 1018.6
20260830114619 15 254 0.0 4.8 0.00 0.00 0.00 78 1018.8
20260830113103 15 254 1.6 6.4 0.00 0.00 0.00 79 1018.8
20260830111600 14 248 1.6 6.4 0.00 0.00 0.00 79 1018.7
20260830104601 13 0 0.0 3.2 0.00 0.00 0.00 80 1018.4
20260830103103 13 0 0.0 3.2 0.00 0.00 0.00 80 1018.7
20260830101601 13 239 0.0 1.6 0.00 0.00 0.00 80 1019.0
20260830100103 13 0 0.0 4.8 0.00 0.00 0.00 80 1019.0
20260830094604 13 239 0.0 3.2 0.00 0.00 0.00 81 1019.2
20260830093100 13 0 0.0 4.8 0.00 0.00 0.00 81 1019.2
20260830091559 13 0 0.0 4.8 0.00 0.00 0.00 81 1019.3
20260830090106 13 239 1.6 6.4 0.00 0.00 0.00 82 1019.3
20260830084607 13 244 1.6 6.4 0.00 0.00 0.00 82 1019.2
20260830083112 13 238 1.6 8.0 0.00 0.00 0.00 83 1019.1
20260830081604 13 232 1.6 4.8 0.00 0.00 0.00 83 1019.1